User: anonymous   Login
Location: Sun City Center
(27.6996°N, 82.3528°W)
Time: 23:21:28
(UTC-05:00)
Language:

Cosmos 2084 Rocket - Orbit

View from above orbital plane
View from above orbital plane
View from above satellite
View from above satellite

Ground track
Ground track

The orbit data is extracted from the following two-line orbital elements,

1 20666U 90055D   15024.75974601  .00000600  00000-0  76191-4 0  4067
2 20666 062.7864 185.0663 0084193 017.9435 342.4598 14.90397298330764
Epoch (UTC): 24 January 2015 18:14:02
Eccentricity: 0.0084193
inclination: 62.7864°
perigee height: 538 km
apogee height: 655 km
right ascension of ascending node: 185.0663°
argument of perigee: 17.9435°
revolutions per day: 14.90397298
mean anomaly at epoch: 342.4598°
orbit number at epoch: 33076

The dashed part of the orbit path shows where the satellite is in the earth's shadow,  

DLR